Location: Lake Almanor
(40.2485°N, 121.1442°W)
Time: 10:48:16
(UTC-08:00)

STARLINK-1077 - Pass Details

Date: 04 February 2020
Orbit: 348 x 351 km, 53.0° (Epoch: 18 February)

Event Time Altitude Azimuth Distance (km) Brightness Sun altitude
Rises 18:00:54 0° 299° (WNW) 2,193 7.5 -7.1°
Reaches altitude 10° 18:03:07 10° 285° (WNW) 1,346 6.7 -7.5°
Maximum altitude 18:05:39 25° 228° (SW) 784 5.3 -7.9°
Drops below altitude 10° 18:08:10 10° 170° (S) 1,344 5.7 -8.4°
Enters shadow 18:14:43 -12° 147° (SSE) 3,938 7.8 -9.6°
